Flight Track Log - Related Links

Times and Time Zones

All times are in EDT time to prevent confusion due to time zone crossing. See the UPS1131 flight status page for this flight to view local times or setup timezone preferences in your user account.

Time Position Orientation Groundspeed Altitude Reporting Facility
EDT Latitude Longitude Course Direction KTS MPH feet Rate Location/Type
Wed 10:05:36 PM 43.1960 -76.4140 282° West 340 391 11,000  Level FlightAware
Wed 10:06:18 PM 43.2100 -76.5030 282° West 353 406 13,000 2,927 Climbing FlightAware
Wed 10:06:58 PM 43.2250 -76.5950 283° West 362 417 15,000 1,888 Climbing FlightAware
Wed 10:07:47 PM 43.2430 -76.7080 282° West 367 422 15,800 552 Climbing FlightAware
Wed 10:08:25 PM 43.2560 -76.7850 283° West 364 419 15,800  Level FlightAware
Wed 10:09:11 PM 43.2730 -76.8930 282° West 361 415 15,800  Level FlightAware
Wed 10:09:46 PM 43.2860 -76.9720 283° West 359 413 15,800  Level FlightAware
Wed 10:10:34 PM 43.2840 -77.0750 269° West 361 415 15,800  Level FlightAware
Wed 10:11:30 PM 43.2700 -77.2010 261° West 362 417 15,800  Level FlightAware
Wed 10:12:09 PM 43.2610 -77.2930 262° West 362 417 15,800  Level FlightAware
Wed 10:12:55 PM 43.2480 -77.4060 261° West 361 415 15,800  Level FlightAware
Wed 10:13:34 PM 43.2390 -77.4920 262° West 361 415 15,800  Level FlightAware
Wed 10:14:15 PM 43.2280 -77.5870 261° West 361 415 15,800  Level FlightAware
Wed 10:14:56 PM 43.2180 -77.6790 262° West 361 415 15,800 -456 Level FlightAware
Wed 10:15:34 PM 43.2080 -77.7670 261° West 335 386 15,200 -1,571 Descending FlightAware
Wed 10:16:20 PM 43.1970 -77.8590 261° West 332 382 13,600 -2,182 Descending FlightAware
Wed 10:17:02 PM 43.1870 -77.9480 261° West 330 380 12,000 -1,832 Descending FlightAware
Wed 10:17:55 PM 43.1750 -78.0560 261° West 314 361 10,700 -1,165 Descending FlightAware
Wed 10:18:45 PM 43.1660 -78.1500 263° West 279 321 10,000 -900 Descending FlightAware
Wed 10:18:55 PM 43.1630 -78.1660 256° West 279 321 9,800 -1,440 Descending FlightAware
Wed 10:19:10 PM 43.1530 -78.1910 241° Southwest 278 320 9,400 -1,500 Descending FlightAware
Wed 10:19:35 PM 43.1350 -78.2270 236° Southwest 277 319 8,800 -1,418 Descending FlightAware
Wed 10:20:05 PM 43.1130 -78.2710 236° Southwest 276 318 8,100 -1,216 Descending FlightAware
Wed 10:20:49 PM 43.0910 -78.3180 237° Southwest 269 310 7,300 -1,371 Descending FlightAware
Wed 10:21:15 PM 43.0680 -78.3690 238° Southwest 267 307 6,500 -1,714 Descending FlightAware
Wed 10:21:45 PM 43.0480 -78.4130 238° Southwest 265 305 5,700 -1,455 Descending FlightAware
Wed 10:22:21 PM 43.0250 -78.4650 239° Southwest 258 297 4,900 -931 Descending FlightAware
Wed 10:22:43 PM 43.0060 -78.4940 228° Southwest 261 300 4,800 -130 Descending FlightAware
Wed 10:23:07 PM 42.9830 -78.5180 217° Southwest 263 303 4,800  Level FlightAware
Wed 10:23:39 PM 42.9520 -78.5500 217° Southwest 265 305 4,800  Level FlightAware
Wed 10:24:07 PM 42.9260 -78.5770 217° Southwest 262 302 4,800  Level FlightAware
Wed 10:24:35 PM 42.8980 -78.6060 217° Southwest 262 302 4,800  Level FlightAware
Wed 10:24:47 PM 42.8860 -78.6180 216° Southwest 262 302 4,800 -150 Level FlightAware
Wed 10:25:15 PM 42.8590 -78.6450 216° Southwest 246 283 4,700 -154 Descending FlightAware
Wed 10:26:05 PM 42.8530 -78.6520 221° Southwest 241 277 4,600 -714 Descending FlightAware
Wed 10:26:39 PM 42.8030 -78.7350 231° Southwest 209 241 3,700 -1,200 Descending FlightAware
Wed 10:27:05 PM 42.7930 -78.7640 245° Southwest 189 217 3,400 -750 Descending FlightAware
Wed 10:27:35 PM 42.8070 -78.7930 303° West 170 196 3,000 -724 Descending FlightAware
Wed 10:28:03 PM 42.8240 -78.8070 329° Northwest 157 181 2,700 -517 Descending FlightAware
Wed 10:28:33 PM 42.8440 -78.8200 335° Northwest 158 182 2,500 -583 Descending FlightAware
Wed 10:29:15 PM 42.8730 -78.8140 North 144 166 2,000 -686 Descending FlightAware
Wed 10:29:43 PM 42.8870 -78.7990 38° Northeast 142 163 1,700 -625 Descending FlightAware
Wed 10:30:03 PM 42.8960 -78.7880 42° Northeast 130 150 1,500 -568 Descending FlightAware
Wed 10:31:18 PM 42.9200 -78.7570 43° Northeast 121 139 800 -560 Descending FlightAware

Login

Don't have an account? Register now (free) for customized features, flight alerts, and more!